K2LCA-14 Weather Reports


time (UTC)temp
C
wind
direction
speed
KPH
gust
KPH
rain 1hr
cm
rain 24hr
cm
rain mn
cm
humidity
%
barometer
mb
20260507000535 11 190 11.3 27.4 0.00 0.25 0.25 96 1008.2
20260507000051 11 189 12.9 27.4 0.00 0.25 0.25 96 1008.2
20260506235537 11 176 9.7 32.2 0.00 0.25 0.25 96 1008.2
20260506235035 11 178 8.0 32.2 0.00 0.25 0.25 96 1008.3
20260506234541 11 177 9.7 40.2 0.00 0.25 0.25 95 1008.3
20260506234038 11 199 11.3 40.2 0.00 0.25 0.25 96 1008.3
20260506233539 11 227 12.9 25.7 0.00 0.25 0.25 96 1008.3
20260506233048 11 184 11.3 25.7 0.00 0.25 0.25 95 1008.2
20260506232536 11 180 11.3 24.1 0.00 0.25 0.25 95 1008.2
20260506232035 11 184 11.3 22.5 0.00 0.25 0.25 95 1008.2
20260506231547 11 211 12.9 25.7 0.00 0.25 0.25 96 1008.2
20260506231034 11 151 11.3 25.7 0.03 0.25 0.25 95 1008.1
20260506230536 11 198 11.3 22.5 0.13 0.25 0.25 95 1008.2
20260506230045 11 183 12.9 22.5 0.15 0.25 0.25 95 1008.2
20260506225539 11 186 11.3 33.8 0.18 0.25 0.25 95 1008.2
20260506225039 12 161 12.9 35.4 0.20 0.25 0.25 95 1008.2
20260506224543 12 169 16.1 35.4 0.20 0.25 0.25 95 1008.2
20260506224037 12 201 14.5 33.8 0.23 0.25 0.25 95 1008.2
20260506223537 12 167 12.9 32.2 0.23 0.25 0.25 95 1008.1
20260506223058 12 166 14.5 35.4 0.25 0.25 0.25 95 1008.0
20260506222538 12 187 17.7 33.8 0.25 0.25 0.25 95 1008.0
20260506222037 12 202 12.9 35.4 0.25 0.25 0.25 94 1008.0
20260506221549 12 176 17.7 35.4 0.25 0.25 0.25 94 1008.0
20260506221037 12 165 16.1 37.0 0.23 0.23 0.23 94 1008.1
20260506220537 12 193 16.1 37.0 0.13 0.13 0.13 94 1008.3
20260506220049 12 201 17.7 33.8 0.08 0.08 0.08 94 1008.2
20260506215537 12 148 14.5 41.8 0.05 0.05 0.05 93 1008.5
20260506215037 12 205 12.9 41.8 0.05 0.05 0.05 93 1008.5
20260506214545 12 193 12.9 35.4 0.05 0.05 0.05 92 1008.6
20260506214037 12 217 11.3 35.4 0.03 0.03 0.03 93 1008.5
20260506213535 12 248 12.9 33.8 0.03 0.03 0.03 92 1008.6
20260506213050 12 222 14.5 32.2 0.00 0.00 0.00 91 1008.8
20260506212538 12 202 16.1 32.2 0.00 0.00 0.00 91 1008.7
20260506212040 12 159 16.1 30.6 0.00 0.00 0.00 91 1008.8
20260506211550 12 198 16.1 33.8 0.00 0.00 0.00 91 1008.6
20260506211038 12 188 16.1 35.4 0.00 0.00 0.00 90 1008.8
20260506210539 12 180 16.1 35.4 0.00 0.00 0.00 90 1008.6
20260506210048 12 206 16.1 49.9 0.00 0.00 0.00 90 1008.7
20260506205535 12 209 14.5 49.9 0.00 0.00 0.00 90 1008.6
20260506205036 12 144 14.5 32.2 0.00 0.00 0.00 91 1008.7
20260506204546 12 182 9.7 32.2 0.00 0.00 0.00 91 1008.7
20260506204037 12 138 16.1 40.2 0.00 0.00 0.00 91 1008.7
20260506203537 12 135 16.1 40.2 0.00 0.00 0.00 91 1008.7
20260506203047 12 192 16.1 30.6 0.00 0.00 0.00 91 1008.6
20260506202536 12 159 17.7 30.6 0.00 0.00 0.00 91 1008.8
20260506202037 12 172 16.1 35.4 0.00 0.00 0.00 91 1008.9
20260506201547 12 184 16.1 35.4 0.00 0.00 0.00 91 1008.8
20260506201035 12 177 14.5 29.0 0.00 0.00 0.00 91 1008.8
20260506200536 12 194 12.9 35.4 0.00 0.00 0.00 91 1009.0
20260506200130 12 200 17.7 35.4 0.00 0.00 0.00 91 1009.1
20260506195537 12 190 12.9 33.8 0.00 0.00 0.00 91 1009.3
20260506195038 12 227 14.5 33.8 0.00 0.00 0.00 91 1009.2
20260506194550 12 177 14.5 33.8 0.00 0.00 0.00 91 1009.3
20260506194036 12 211 16.1 33.8 0.00 0.00 0.00 91 1009.3
20260506193540 12 182 16.1 46.7 0.00 0.00 0.00 90 1009.5
20260506193046 12 204 14.5 46.7 0.00 0.00 0.00 89 1009.5
20260506192538 12 157 12.9 30.6 0.00 0.00 0.00 89 1009.6
20260506192038 12 171 14.5 32.2 0.00 0.00 0.00 88 1009.6
20260506191547 13 153 12.9 32.2 0.00 0.00 0.00 88 1009.6
20260506191037 13 186 14.5 40.2 0.00 0.00 0.00 88 1009.7
20260506190538 13 227 17.7 40.2 0.00 0.00 0.00 87 1009.8
20260506190046 13 196 14.5 33.8 0.00 0.00 0.00 87 1009.9
20260506185538 13 186 14.5 33.8 0.00 0.00 0.00 87 1010.0
20260506185039 13 208 17.7 32.2 0.00 0.00 0.00 86 1009.9
20260506184550 13 230 17.7 37.0 0.00 0.00 0.00 87 1009.9
20260506184037 13 188 16.1 37.0 0.00 0.00 0.00 87 1009.8
20260506183538 13 182 17.7 37.0 0.00 0.00 0.00 87 1009.9
20260506183052 13 197 17.7 37.0 0.00 0.00 0.00 87 1010.0
20260506182537 13 157 19.3 35.4 0.00 0.00 0.00 87 1010.0
20260506182037 13 168 16.1 37.0 0.00 0.00 0.00 87 1010.1
20260506181549 13 182 16.1 37.0 0.00 0.00 0.00 86 1010.1
20260506181037 13 200 16.1 33.8 0.00 0.00 0.00 86 1010.2
20260506180538 13 188 16.1 40.2 0.00 0.00 0.00 86 1010.3
20260506180049 13 215 14.5 40.2 0.00 0.00 0.00 86 1010.3
20260506175535 13 200 17.7 49.9 0.00 0.00 0.00 86 1010.5
20260506175037 13 180 20.9 49.9 0.00 0.00 0.00 86 1010.6
20260506174547 13 202 16.1 37.0 0.00 0.00 0.00 86 1010.7
20260506174039 13 188 19.3 43.5 0.00 0.00 0.00 86 1010.9
20260506173538 13 201 19.3 43.5 0.00 0.00 0.00 86 1010.9
20260506173053 13 218 19.3 35.4 0.00 0.00 0.00 86 1011.0
20260506172536 13 197 19.3 38.6 0.00 0.00 0.00 86 1010.8
20260506172038 13 188 17.7 38.6 0.00 0.00 0.00 86 1011.1
20260506171557 13 213 17.7 38.6 0.00 0.00 0.00 86 1011.1
20260506171038 13 192 16.1 38.6 0.00 0.00 0.00 86 1011.2
20260506170538 13 208 19.3 38.6 0.00 0.00 0.00 85 1011.1
20260506170042 14 192 16.1 38.6 0.00 0.00 0.00 84 1011.1
20260506165537 14 196 17.7 46.7 0.00 0.00 0.00 84 1011.2
20260506165039 14 220 16.1 49.9 0.00 0.00 0.00 84 1011.3
20260506164542 14 189 19.3 49.9 0.00 0.00 0.00 85 1011.4
20260506164037 14 221 20.9 45.1 0.00 0.00 0.00 84 1011.3
20260506163537 14 177 14.5 33.8 0.00 0.00 0.00 85 1011.7
20260506163050 14 204 17.7 33.8 0.00 0.00 0.00 86 1011.7
20260506162538 14 166 12.9 35.4 0.00 0.00 0.00 86 1011.6
20260506162039 13 178 17.7 37.0 0.00 0.00 0.00 86 1011.7
20260506161553 13 187 16.1 38.6 0.00 0.00 0.00 86 1011.6
20260506161035 13 179 17.7 38.6 0.00 0.00 0.00 86 1011.7
20260506160540 13 186 19.3 35.4 0.00 0.00 0.00 86 1011.7
20260506160046 13 173 14.5 33.8 0.00 0.00 0.00 86 1011.9
20260506155538 13 178 14.5 38.6 0.00 0.00 0.00 85 1011.9
20260506155034 13 141 20.9 38.6 0.00 0.00 0.00 84 1012.0
20260506154547 14 184 16.1 33.8 0.00 0.00 0.00 84 1012.1
20260506154038 15 213 17.7 43.5 0.00 0.00 0.00 84 1012.2
20260506153537 15 200 20.9 43.5 0.00 0.00 0.00 84 1012.2
20260506153046 15 185 19.3 41.8 0.00 0.00 0.00 83 1012.2
20260506152538 15 206 19.3 41.8 0.00 0.00 0.00 83 1012.2
20260506152037 15 165 17.7 38.6 0.00 0.00 0.00 84 1012.0
20260506151549 15 205 20.9 38.6 0.00 0.00 0.00 84 1012.1
20260506151038 15 184 17.7 40.2 0.00 0.00 0.00 84 1012.1
20260506150537 15 177 19.3 40.2 0.00 0.00 0.00 84 1012.1
20260506150047 15 173 17.7 37.0 0.00 0.00 0.00 83 1012.3
20260506145535 15 195 12.9 32.2 0.00 0.00 0.00 85 1012.3
20260506145037 15 172 14.5 32.2 0.00 0.00 0.00 86 1012.5
20260506144547 14 205 11.3 33.8 0.00 0.00 0.00 86 1012.4
20260506144037 14 219 12.9 33.8 0.00 0.00 0.00 86 1012.4
20260506143537 14 215 11.3 35.4 0.00 0.00 0.00 86 1012.4
20260506143049 13 167 16.1 33.8 0.00 0.00 0.00 87 1012.2
20260506142538 13 142 12.9 40.2 0.00 0.00 0.00 87 1012.2
20260506142036 13 202 20.9 40.2 0.00 0.00 0.00 85 1012.2
20260506141549 14 194 19.3 40.2 0.00 0.00 0.00 85 1012.1
20260506141036 14 186 14.5 37.0 0.00 0.00 0.00 86 1011.9
20260506140538 14 206 14.5 35.4 0.00 0.00 0.00 86 1011.9
20260506140049 13 156 14.5 35.4 0.00 0.00 0.00 86 1012.1
20260506135538 13 170 17.7 35.4 0.00 0.00 0.00 85 1011.9
20260506135037 14 140 9.7 27.4 0.00 0.00 0.00 86 1011.9
20260506134611 14 223 11.3 27.4 0.00 0.00 0.00 86 1012.3
20260506134037 14 242 11.3 30.6 0.00 0.00 0.00 86 1012.4
20260506133535 14 198 9.7 30.6 0.00 0.00 0.00 86 1012.3
20260506133045 14 202 12.9 32.2 0.00 0.00 0.00 86 1012.4
20260506132537 14 244 14.5 41.8 0.00 0.00 0.00 86 1012.4
20260506132035 14 163 14.5 41.8 0.00 0.00 0.00 86 1012.5
20260506131601 14 159 16.1 37.0 0.00 0.00 0.00 85 1012.4
20260506131037 14 181 14.5 37.0 0.00 0.00 0.00 86 1012.4
20260506130536 14 180 14.5 33.8 0.00 0.00 0.00 86 1012.3
20260506130041 14 182 14.5 35.4 0.00 0.00 0.00 86 1012.3
20260506125536 13 152 12.9 38.6 0.00 0.00 0.00 87 1012.3
20260506125035 13 207 16.1 38.6 0.00 0.00 0.00 88 1012.4
20260506124548 13 187 19.3 37.0 0.00 0.00 0.00 87 1012.4
20260506124037 13 225 14.5 29.0 0.00 0.00 0.00 87 1012.4
20260506123537 13 155 14.5 29.0 0.00 0.00 0.00 88 1012.5
20260506123049 13 148 11.3 37.0 0.00 0.00 0.00 89 1012.4
20260506122538 13 213 14.5 40.2 0.00 0.00 0.00 89 1012.5
20260506122039 13 169 16.1 40.2 0.00 0.00 0.00 89 1012.4
20260506121545 13 164 16.1 37.0 0.00 0.00 0.00 89 1012.3
20260506121037 13 162 14.5 40.2 0.00 0.00 0.00 89 1012.2
20260506120537 13 175 16.1 40.2 0.00 0.00 0.00 89 1012.4
20260506120047 13 209 16.1 32.2 0.00 0.00 0.00 90 1012.4
20260506115537 13 184 19.3 38.6 0.00 0.00 0.00 90 1012.4
20260506115036 13 150 16.1 38.6 0.00 0.00 0.00 90 1012.3
20260506114547 13 184 14.5 30.6 0.00 0.00 0.00 91 1012.4
20260506114037 12 171 14.5 37.0 0.00 0.00 0.00 91 1012.5
20260506113537 12 139 17.7 37.0 0.00 0.00 0.00 91 1012.5
20260506113048 12 201 17.7 33.8 0.00 0.00 0.00 91 1012.4
20260506112538 12 199 17.7 33.8 0.00 0.00 0.00 92 1012.4
20260506112036 12 207 14.5 33.8 0.00 0.00 0.00 93 1012.4
20260506111539 12 156 14.5 33.8 0.00 0.00 0.00 93 1012.4
20260506111037 12 224 14.5 29.0 0.00 0.00 0.00 92 1012.4
20260506110537 12 197 12.9 30.6 0.00 0.00 0.00 92 1012.3
20260506110051 12 193 12.9 30.6 0.00 0.00 0.00 92 1012.3
20260506105536 12 216 12.9 29.0 0.00 0.00 0.00 93 1012.3
20260506105038 12 199 11.3 33.8 0.00 0.00 0.00 93 1012.3
20260506104544 12 172 16.1 33.8 0.00 0.00 0.00 93 1012.3
20260506104037 12 174 14.5 33.8 0.00 0.00 0.00 93 1012.2
20260506103537 12 151 16.1 35.4 0.00 0.00 0.00 93 1012.3
20260506103049 12 221 16.1 35.4 0.00 0.00 0.00 93 1012.3
20260506102537 12 200 16.1 30.6 0.00 0.00 0.00 93 1012.3
20260506102039 12 152 14.5 33.8 0.00 0.00 0.00 94 1012.3
20260506101541 12 172 16.1 33.8 0.00 0.00 0.00 94 1012.2
20260506101037 11 185 12.9 35.4 0.00 0.00 0.00 93 1012.1
20260506100537 11 135 16.1 37.0 0.00 0.00 0.00 93 1012.2
20260506100048 11 148 16.1 37.0 0.00 0.00 0.00 94 1012.2
20260506095538 11 196 14.5 32.2 0.00 0.00 0.00 93 1012.1
20260506095042 11 203 16.1 43.5 0.00 0.00 0.00 93 1012.0
20260506094547 11 210 16.1 43.5 0.00 0.00 0.00 93 1012.0
20260506094039 11 196 19.3 38.6 0.00 0.00 0.00 93 1011.9
20260506093537 11 144 16.1 37.0 0.00 0.00 0.00 94 1012.1
20260506093052 11 153 14.5 33.8 0.00 0.00 0.00 93 1012.1
20260506092536 11 188 14.5 32.2 0.00 0.00 0.00 94 1012.2
20260506092039 11 194 16.1 32.2 0.00 0.00 0.00 94 1012.3
20260506091543 11 192 14.5 32.2 0.00 0.00 0.00 94 1012.4
20260506091036 11 188 14.5 32.2 0.00 0.00 0.00 94 1012.4
20260506090536 11 186 11.3 29.0 0.00 0.00 0.00 94 1012.4
20260506090042 12 283 14.5 29.0 0.00 0.00 0.00 94 1012.4
20260506085535 12 175 11.3 32.2 0.00 0.00 0.00 94 1012.5
20260506085037 11 215 14.5 32.2 0.00 0.00 0.00 94 1012.4
20260506084548 12 173 12.9 30.6 0.00 0.00 0.00 94 1012.5
20260506084037 11 198 16.1 30.6 0.00 0.00 0.00 94 1012.5
20260506083537 11 173 12.9 29.0 0.00 0.00 0.00 94 1012.6
20260506083107 11 209 12.9 27.4 0.00 0.00 0.00 94 1012.5
20260506082537 11 175 16.1 37.0 0.00 0.00 0.00 94 1012.6
20260506082036 11 198 11.3 40.2 0.00 0.00 0.00 94 1012.5
20260506081547 11 172 16.1 40.2 0.00 0.00 0.00 94 1012.6
20260506081036 11 198 14.5 29.0 0.00 0.00 0.00 94 1012.7
20260506080538 11 167 16.1 37.0 0.00 0.00 0.00 94 1012.8
20260506073044 11 197 16.1 32.2 0.00 0.00 0.00 93 1012.6
20260506072537 11 157 16.1 33.8 0.00 0.00 0.00 93 1012.7
20260506072037 12 205 14.5 33.8 0.00 0.00 0.00 93 1012.6
20260506071548 12 194 17.7 33.8 0.00 0.00 0.00 93 1012.7
20260506071038 12 192 14.5 32.2 0.00 0.00 0.00 93 1012.7
20260506070537 12 210 16.1 29.0 0.00 0.00 0.00 93 1012.7
20260506062037 12 182 17.7 30.6 0.00 0.00 0.00 92 1012.5
20260506061543 12 178 12.9 37.0 0.00 0.00 0.00 92 1012.5
20260506061037 12 165 14.5 37.0 0.00 0.00 0.00 92 1012.4
20260506060535 12 221 14.5 37.0 0.00 0.00 0.00 92 1012.5
20260506051036 12 221 14.5 32.2 0.00 0.00 0.00 92 1012.7
20260506050536 12 248 12.9 32.2 0.00 0.00 0.00 92 1012.9
20260506045036 11 167 12.9 33.8 0.00 0.00 0.00 92 1013.0
20260506044550 11 201 16.1 33.8 0.00 0.00 0.00 92 1012.9
20260506044036 11 225 12.9 30.6 0.00 0.00 0.00 92 1012.9
20260506043540 11 198 12.9 32.2 0.00 0.00 0.00 92 1013.0
20260506043049 11 175 14.5 38.6 0.00 0.00 0.00 92 1013.1
20260506042537 11 173 12.9 38.6 0.00 0.00 0.00 92 1013.2
20260506042037 11 201 12.9 30.6 0.00 0.00 0.00 92 1013.1
20260506041546 11 221 9.7 29.0 0.00 0.00 0.00 92 1013.1
20260506041036 11 167 14.5 33.8 0.00 0.00 0.00 92 1013.1
20260506040534 11 179 12.9 33.8 0.00 0.00 0.00 92 1013.1
20260506040050 11 186 14.5 32.2 0.00 0.00 0.00 92 1013.0
20260506035537 11 231 12.9 32.2 0.00 0.00 0.00 92 1013.1
20260506035037 11 160 12.9 29.0 0.00 0.00 0.00 91 1013.1
20260506034545 11 196 12.9 29.0 0.00 0.00 0.00 91 1013.1
20260506034036 11 128 14.5 27.4 0.00 0.00 0.00 91 1013.1
20260506033536 11 201 14.5 46.7 0.00 0.00 0.00 91 1013.1
20260506033043 11 173 11.3 46.7 0.00 0.00 0.00 91 1013.0
20260506032537 11 161 16.1 33.8 0.00 0.00 0.00 91 1013.0
20260506032037 11 198 12.9 30.6 0.00 0.00 0.00 90 1012.9
20260506031549 11 214 12.9 30.6 0.00 0.00 0.00 91 1012.9
20260506031038 12 209 12.9 35.4 0.00 0.00 0.00 90 1012.8
20260506030538 12 188 14.5 33.8 0.00 0.00 0.00 90 1012.9
20260506030052 12 215 9.7 35.4 0.00 0.00 0.00 90 1012.9
20260506025537 12 211 12.9 35.4 0.00 0.00 0.00 90 1012.8
20260506025036 11 166 9.7 27.4 0.00 0.00 0.00 90 1012.9
20260506024559 11 191 12.9 33.8 0.00 0.00 0.00 90 1012.9
20260506024037 12 219 12.9 33.8 0.00 0.00 0.00 89 1012.9
20260506023538 12 146 14.5 29.0 0.00 0.00 0.00 89 1012.9
20260506023045 12 189 11.3 27.4 0.00 0.00 0.00 89 1012.9
20260506022537 12 199 14.5 35.4 0.00 0.00 0.00 89 1012.8
20260506022037 12 174 17.7 35.4 0.00 0.00 0.00 89 1012.8
20260506021544 12 231 14.5 30.6 0.00 0.00 0.00 89 1012.9
20260506021037 12 150 14.5 30.6 0.00 0.00 0.00 89 1012.8
20260506020536 12 205 12.9 29.0 0.00 0.00 0.00 88 1012.9
20260506020105 12 195 12.9 38.6 0.00 0.00 0.00 88 1012.8
20260506015540 12 275 14.5 38.6 0.00 0.00 0.00 88 1012.9
20260506015037 12 198 16.1 45.1 0.00 0.00 0.00 87 1012.8
20260506014552 12 169 12.9 45.1 0.00 0.00 0.00 87 1012.8
20260506014036 12 188 16.1 37.0 0.00 0.00 0.00 87 1012.6
20260506013535 12 224 17.7 37.0 0.00 0.00 0.00 87 1012.7
20260506013042 12 219 14.5 29.0 0.00 0.00 0.00 86 1012.6
20260506012537 12 235 14.5 38.6 0.00 0.00 0.00 86 1012.6
20260506012038 12 165 16.1 38.6 0.00 0.00 0.00 86 1012.5
20260506011612 12 171 14.5 35.4 0.00 0.00 0.00 85 1012.5
20260506011036 12 198 14.5 35.4 0.00 0.00 0.00 85 1012.4
20260506010537 12 195 14.5 35.4 0.00 0.00 0.00 85 1012.3
20260506010047 12 209 17.7 35.4 0.00 0.00 0.00 84 1012.1
20260506005537 12 180 12.9 35.4 0.00 0.00 0.00 84 1012.1
20260506005037 12 213 16.1 33.8 0.00 0.00 0.00 84 1012.1
20260506004558 12 159 16.1 33.8 0.00 0.00 0.00 83 1011.9
20260506004037 12 198 14.5 40.2 0.00 0.00 0.00 83 1011.9
20260506003536 12 186 16.1 40.2 0.00 0.00 0.00 83 1011.9
20260506003049 12 195 16.1 32.2 0.00 0.00 0.00 83 1011.6
20260506002535 12 264 14.5 33.8 0.00 0.00 0.00 83 1011.7
20260506002037 12 206 16.1 33.8 0.00 0.00 0.00 83 1011.6
20260506001549 12 143 12.9 32.2 0.00 0.00 0.00 84 1011.5
20260506001039 12 165 14.5 32.2 0.00 0.00 0.00 84 1011.5